Station History

Weather Underground - logo

Station Historical Data
Daily Summary for September 14, 2017 Units:  English    Metric   Both
« Previous Day
Next Day »
Daily Weekly Monthly Yearly Custom
  High: Low: Average:
Temperature: 84.7 °F 62.2 °F 72.6 °F
Dew Point: 63.4 °F 57.3 °F 60.2 °F
Humidity: 84 % 45 % 67 %
Wind Speed: 8.1 mph 0.0 mph 1.1 mph
Wind Gust: 8.1 mph - -
Wind:- - South
Pressure: 29.88 in 29.75 in -
Precipitation: 0.00 in    
Historical Graphs
 
 
Tabular Data for September 14, 2017
Time Temperature Dew Point Pressure Wind Wind Speed Wind Gust Humidity Rainfall Rate (Hourly)
00:00 70.6 °F 61.1 °F 29.75 in Calm     72 % 0.00 in
00:05 70.6 °F 60.7 °F 29.75 in Calm     71 % 0.00 in
00:10 70.5 °F 61.0 °F 29.75 in Calm     72 % 0.00 in
00:15 70.3 °F 61.2 °F 29.75 in Calm     73 % 0.00 in
00:20 70.0 °F 60.9 °F 29.75 in Calm     73 % 0.00 in
00:25 69.7 °F 60.7 °F 29.75 in Calm     73 % 0.00 in
00:30 69.6 °F 60.9 °F 29.75 in Calm     74 % 0.00 in
00:35 69.5 °F 60.8 °F 29.75 in Calm     74 % 0.00 in
00:41 69.2 °F 60.2 °F 29.75 in Calm     73 % 0.00 in
00:46 69.0 °F 60.0 °F 29.75 in Calm     73 % 0.00 in
00:51 68.8 °F 59.8 °F 29.75 in Calm     73 % 0.00 in
00:56 68.6 °F 59.6 °F 29.75 in Calm     73 % 0.00 in
01:01 68.4 °F 59.0 °F 29.75 in Calm     72 % 0.00 in
01:06 68.4 °F 59.8 °F 29.75 in Calm     74 % 0.00 in
01:11 68.4 °F 60.5 °F 29.75 in Calm     76 % 0.00 in
01:16 68.3 °F 59.7 °F 29.75 in Calm     74 % 0.00 in
01:21 68.1 °F 59.1 °F 29.75 in Calm     73 % 0.00 in
01:26 68.0 °F 59.4 °F 29.75 in Calm     74 % 0.00 in
01:31 68.0 °F 59.4 °F 29.75 in Calm     74 % 0.00 in
01:36 68.0 °F 59.4 °F 29.75 in Calm     74 % 0.00 in
01:41 68.1 °F 59.9 °F 29.75 in Calm     75 % 0.00 in
01:46 68.3 °F 60.4 °F 29.75 in Calm     76 % 0.00 in
01:51 68.4 °F 60.5 °F 29.75 in Calm     76 % 0.00 in
01:56 68.4 °F 59.8 °F 29.75 in Calm     74 % 0.00 in
02:01 68.3 °F 59.3 °F 29.75 in Calm     73 % 0.00 in
02:06 68.2 °F 59.6 °F 29.75 in SSW 8.1 mph 8.1 mph 74 % 0.00 in
02:11 68.1 °F 59.5 °F 29.76 in Calm     74 % 0.00 in
02:16 68.0 °F 59.8 °F 29.76 in Calm     75 % 0.00 in
02:21 67.9 °F 59.7 °F 29.76 in Calm     75 % 0.00 in
02:26 67.8 °F 59.6 °F 29.77 in Calm     75 % 0.00 in
02:31 67.7 °F 59.5 °F 29.77 in Calm     75 % 0.00 in
02:36 67.5 °F 59.7 °F 29.77 in SE 1.2 mph 1.2 mph 76 % 0.00 in
02:41 67.4 °F 59.6 °F 29.77 in Calm     76 % 0.00 in
02:46 67.3 °F 59.8 °F 29.77 in SSE 2.3 mph 2.3 mph 77 % 0.00 in
02:51 67.2 °F 59.7 °F 29.77 in SSE 1.0 mph 1.0 mph 77 % 0.00 in
02:56 67.1 °F 59.6 °F 29.77 in Calm     77 % 0.00 in
03:01 67.0 °F 59.9 °F 29.77 in SSE 1.2 mph   78 % 0.00 in
03:06 66.8 °F 59.7 °F 29.78 in Calm     78 % 0.00 in
03:11 66.6 °F 59.5 °F 29.78 in Calm     78 % 0.00 in
03:16 66.4 °F 59.3 °F 29.78 in Calm     78 % 0.00 in
03:21 66.2 °F 59.1 °F 29.78 in Calm     78 % 0.00 in
03:26 66.0 °F 58.9 °F 29.78 in Calm     78 % 0.00 in
03:31 65.8 °F 58.7 °F 29.78 in Calm     78 % 0.00 in
03:36 65.6 °F 58.9 °F 29.78 in Calm     79 % 0.00 in
03:41 65.4 °F 58.7 °F 29.78 in SE 1.2 mph   79 % 0.00 in
03:46 65.1 °F 58.8 °F 29.78 in SE 1.2 mph   80 % 0.00 in
03:51 64.9 °F 58.6 °F 29.79 in SE 1.0 mph 1.0 mph 80 % 0.00 in
03:56 64.8 °F 58.5 °F 29.79 in Calm     80 % 0.00 in
04:01 64.6 °F 58.6 °F 29.79 in Calm     81 % 0.00 in
04:06 64.5 °F 58.5 °F 29.79 in Calm     81 % 0.00 in
04:11 64.4 °F 58.4 °F 29.79 in SE 1.2 mph 1.2 mph 81 % 0.00 in
04:16 64.4 °F 58.4 °F 29.79 in South 1.0 mph 1.0 mph 81 % 0.00 in
04:21 64.5 °F 58.5 °F 29.79 in East 1.2 mph   81 % 0.00 in
04:26 64.5 °F 58.2 °F 29.79 in Calm     80 % 0.00 in
04:31 64.3 °F 58.0 °F 29.79 in Calm     80 % 0.00 in
04:36 64.3 °F 58.0 °F 29.80 in East 1.2 mph   80 % 0.00 in
04:41 64.1 °F 58.1 °F 29.80 in East 1.2 mph   81 % 0.00 in
04:46 64.0 °F 58.1 °F 29.80 in Calm     81 % 0.00 in
04:49 63.9 °F 58.0 °F 29.80 in Calm     81 % 0.00 in
04:54 63.9 °F 58.0 °F 29.80 in Calm     81 % 0.00 in
04:59 63.8 °F 57.9 °F 29.80 in Calm     81 % 0.00 in
05:05 63.7 °F 57.8 °F 29.80 in Calm     81 % 0.00 in
05:10 63.7 °F 58.1 °F 29.81 in Calm     82 % 0.00 in
05:15 63.5 °F 57.9 °F 29.81 in Calm     82 % 0.00 in
05:20 63.4 °F 57.8 °F 29.81 in Calm     82 % 0.00 in
05:25 63.3 °F 57.7 °F 29.81 in Calm     82 % 0.00 in
05:30 63.3 °F 57.7 °F 29.81 in Calm     82 % 0.00 in
05:35 63.3 °F 57.7 °F 29.81 in East 1.2 mph 1.2 mph 82 % 0.00 in
05:40 63.3 °F 57.7 °F 29.81 in Calm     82 % 0.00 in
05:45 63.2 °F 57.6 °F 29.81 in Calm     82 % 0.00 in
05:50 63.0 °F 57.4 °F 29.81 in Calm     82 % 0.00 in
05:55 62.8 °F 57.6 °F 29.81 in Calm     83 % 0.00 in
06:00 62.7 °F 57.5 °F 29.82 in Calm     83 % 0.00 in
06:05 62.6 °F 57.7 °F 29.82 in East 1.2 mph   84 % 0.00 in
06:10 62.5 °F 57.6 °F 29.81 in East 1.2 mph   84 % 0.00 in
06:15 62.5 °F 57.6 °F 29.81 in East 1.2 mph 1.2 mph 84 % 0.00 in
06:20 62.4 °F 57.5 °F 29.82 in East 1.2 mph 1.2 mph 84 % 0.00 in
06:25 62.3 °F 57.4 °F 29.82 in Calm     84 % 0.00 in
06:30 62.3 °F 57.4 °F 29.82 in Calm     84 % 0.00 in
06:35 62.2 °F 57.3 °F 29.82 in Calm     84 % 0.00 in
06:40 62.2 °F 57.3 °F 29.82 in East 1.2 mph 1.2 mph 84 % 0.00 in
06:45 62.2 °F 57.3 °F 29.83 in East 1.2 mph   84 % 0.00 in
06:50 62.3 °F 57.4 °F 29.82 in East 1.2 mph 1.2 mph 84 % 0.00 in
06:55 62.5 °F 57.6 °F 29.82 in East 1.2 mph 1.2 mph 84 % 0.00 in
06:59 62.7 °F 57.8 °F 29.82 in Calm     84 % 0.00 in
07:04 62.9 °F 58.0 °F 29.83 in Calm     84 % 0.00 in
07:09 63.2 °F 57.9 °F 29.83 in East 1.2 mph 1.2 mph 83 % 0.00 in
07:14 63.5 °F 58.2 °F 29.83 in East 1.2 mph 1.2 mph 83 % 0.00 in
07:19 63.8 °F 58.2 °F 29.83 in East 1.2 mph 1.2 mph 82 % 0.00 in
07:24 64.1 °F 58.1 °F 29.83 in East 2.3 mph 2.3 mph 81 % 0.00 in
07:29 64.3 °F 58.3 °F 29.83 in East 1.2 mph 1.2 mph 81 % 0.00 in
07:34 64.4 °F 58.4 °F 29.83 in Calm     81 % 0.00 in
07:39 64.6 °F 58.6 °F 29.84 in East 1.2 mph 1.2 mph 81 % 0.00 in
07:49 65.0 °F 58.7 °F 29.84 in East 1.2 mph 1.2 mph 80 % 0.00 in
07:54 65.3 °F 59.0 °F 29.84 in East 2.3 mph 2.3 mph 80 % 0.00 in
07:59 65.5 °F 59.2 °F 29.84 in East 1.2 mph 1.2 mph 80 % 0.00 in
08:04 65.8 °F 59.1 °F 29.84 in East 1.2 mph   79 % 0.00 in
08:09 66.0 °F 58.9 °F 29.84 in East 3.5 mph 3.5 mph 78 % 0.00 in
08:14 66.0 °F 58.9 °F 29.84 in East 3.5 mph 3.5 mph 78 % 0.00 in
08:19 66.2 °F 59.1 °F 29.84 in East 1.2 mph 1.2 mph 78 % 0.00 in
08:24 66.3 °F 59.2 °F 29.84 in ESE 1.2 mph 1.2 mph 78 % 0.00 in
08:29 66.5 °F 59.1 °F 29.84 in ESE 1.2 mph 1.2 mph 77 % 0.00 in
08:33 66.6 °F 59.2 °F 29.84 in ESE 2.3 mph 2.3 mph 77 % 0.00 in
08:38 66.8 °F 59.4 °F 29.85 in SE 2.3 mph 2.3 mph 77 % 0.00 in
08:43 66.9 °F 59.1 °F 29.85 in SE 2.3 mph 2.3 mph 76 % 0.00 in
08:48 67.2 °F 59.4 °F 29.85 in SE 1.2 mph 1.2 mph 76 % 0.00 in
08:53 67.4 °F 59.6 °F 29.85 in SSE 2.3 mph   76 % 0.00 in
08:58 67.6 °F 59.8 °F 29.86 in ESE 2.3 mph 2.3 mph 76 % 0.00 in
09:03 67.6 °F 59.4 °F 29.86 in SE 2.3 mph 2.3 mph 75 % 0.00 in
09:08 67.6 °F 59.4 °F 29.86 in SE 2.3 mph 2.3 mph 75 % 0.00 in
09:13 67.8 °F 59.6 °F 29.86 in SE 1.2 mph 1.2 mph 75 % 0.00 in
09:18 68.0 °F 59.8 °F 29.86 in East 1.2 mph 1.2 mph 75 % 0.00 in
09:23 68.1 °F 59.5 °F 29.86 in East 2.3 mph 2.3 mph 74 % 0.00 in
09:28 68.3 °F 59.7 °F 29.87 in East 1.2 mph 1.2 mph 74 % 0.00 in
09:33 68.6 °F 59.6 °F 29.86 in East 1.2 mph 1.2 mph 73 % 0.00 in
09:38 68.8 °F 59.8 °F 29.87 in East 2.3 mph 2.3 mph 73 % 0.00 in
09:43 68.8 °F 59.8 °F 29.87 in East 1.2 mph 1.2 mph 73 % 0.00 in
09:48 69.0 °F 59.6 °F 29.87 in East 1.2 mph 1.2 mph 72 % 0.00 in
09:53 69.2 °F 60.2 °F 29.87 in ESE 3.0 mph 3.0 mph 73 % 0.00 in
09:58 69.0 °F 59.2 °F 29.87 in East 2.3 mph 2.3 mph 71 % 0.00 in
10:03 69.1 °F 59.3 °F 29.87 in East 1.2 mph 1.2 mph 71 % 0.00 in
10:08 69.2 °F 59.8 °F 29.87 in ESE 1.2 mph 1.2 mph 72 % 0.00 in
10:13 69.6 °F 59.8 °F 29.87 in ESE 3.0 mph 3.0 mph 71 % 0.00 in
10:18 69.9 °F 60.1 °F 29.88 in SSE 1.2 mph 1.2 mph 71 % 0.00 in
10:23 70.3 °F 60.4 °F 29.88 in Calm   0.2 mph 71 % 0.00 in
10:28 70.6 °F 59.9 °F 29.88 in WNW 1.2 mph 1.2 mph 69 % 0.00 in
10:33 70.8 °F 60.1 °F 29.88 in Calm     69 % 0.00 in
10:38 71.1 °F 60.4 °F 29.88 in ENE 1.2 mph 1.2 mph 69 % 0.00 in
10:43 71.2 °F 60.5 °F 29.87 in ENE 2.3 mph   69 % 0.00 in
10:49 71.8 °F 60.7 °F 29.87 in ENE 1.2 mph 1.2 mph 68 % 0.00 in
10:54 72.1 °F 60.5 °F 29.87 in ESE 3.5 mph 3.5 mph 67 % 0.00 in
10:59 72.2 °F 60.6 °F 29.87 in ENE 2.0 mph 2.0 mph 67 % 0.00 in
11:04 72.3 °F 60.7 °F 29.87 in ESE 3.5 mph 3.5 mph 67 % 0.00 in
11:09 73.1 °F 61.1 °F 29.87 in ESE 3.5 mph 3.5 mph 66 % 0.00 in
11:14 74.1 °F 61.6 °F 29.87 in NNE 2.3 mph 2.3 mph 65 % 0.00 in
11:19 75.1 °F 61.6 °F 29.87 in SE 1.2 mph   63 % 0.00 in
11:24 75.4 °F 60.5 °F 29.86 in South 2.3 mph 2.3 mph 60 % 0.00 in
11:29 75.2 °F 60.4 °F 29.86 in ENE 2.3 mph 2.3 mph 60 % 0.00 in
11:34 75.1 °F 60.3 °F 29.86 in ESE 3.5 mph 3.5 mph 60 % 0.00 in
11:39 75.4 °F 60.5 °F 29.86 in ESE 2.3 mph 2.3 mph 60 % 0.00 in
11:44 75.9 °F 60.1 °F 29.86 in ENE 3.5 mph 3.5 mph 58 % 0.00 in
11:49 76.1 °F 60.7 °F 29.86 in SSE 3.5 mph 3.5 mph 59 % 0.00 in
11:54 76.1 °F 60.2 °F 29.86 in SE 4.6 mph 4.6 mph 58 % 0.00 in
11:59 76.1 °F 60.2 °F 29.86 in South 3.5 mph 3.5 mph 58 % 0.00 in
12:04 76.3 °F 59.9 °F 29.85 in NE 3.5 mph 3.5 mph 57 % 0.00 in
12:06 76.8 °F 60.9 °F 29.85 in South 3.5 mph 3.5 mph 58 % 0.00 in
12:11 77.5 °F 60.6 °F 29.85 in ENE 1.2 mph 1.2 mph 56 % 0.00 in
12:16 78.0 °F 61.0 °F 29.85 in SSE 1.2 mph 1.2 mph 56 % 0.00 in
12:21 78.1 °F 60.6 °F 29.85 in SSE 2.3 mph 2.3 mph 55 % 0.00 in
12:26 78.4 °F 60.4 °F 29.85 in ESE 1.2 mph   54 % 0.00 in
12:31 79.4 °F 61.3 °F 29.85 in East 2.3 mph 2.3 mph 54 % 0.00 in
12:36 79.3 °F 60.1 °F 29.84 in WNW 2.3 mph 2.3 mph 52 % 0.00 in
12:41 79.2 °F 60.6 °F 29.84 in NW 2.0 mph 2.0 mph 53 % 0.00 in
12:46 78.9 °F 60.8 °F 29.84 in WNW 2.3 mph 2.3 mph 54 % 0.00 in
12:56 79.4 °F 60.8 °F 29.83 in SE 1.2 mph   53 % 0.00 in
13:01 79.9 °F 60.2 °F 29.83 in West 2.3 mph 2.3 mph 51 % 0.00 in
13:07 79.9 °F 60.7 °F 29.83 in NNW 2.3 mph   52 % 0.00 in
13:12 80.8 °F 61.5 °F 29.83 in SSE 3.5 mph 3.5 mph 52 % 0.00 in
13:17 80.5 °F 60.1 °F 29.82 in SSE 1.2 mph 1.2 mph 50 % 0.00 in
13:22 80.7 °F 61.4 °F 29.82 in Calm     52 % 0.00 in
13:27 81.6 °F 61.2 °F 29.82 in Calm     50 % 0.00 in
13:32 81.7 °F 60.7 °F 29.82 in NE 3.5 mph 3.5 mph 49 % 0.00 in
13:37 81.5 °F 61.6 °F 29.81 in WNW 1.2 mph 1.2 mph 51 % 0.00 in
13:42 81.9 °F 61.4 °F 29.81 in ESE 2.3 mph 2.3 mph 50 % 0.00 in
13:47 82.5 °F 60.8 °F 29.81 in NW 3.5 mph 3.5 mph 48 % 0.00 in
13:52 82.7 °F 62.2 °F 29.81 in NNW 1.2 mph 1.2 mph 50 % 0.00 in
13:57 82.2 °F 61.7 °F 29.81 in NNW 3.5 mph 3.5 mph 50 % 0.00 in
14:02 81.8 °F 60.8 °F 29.80 in NW 1.2 mph 1.2 mph 49 % 0.00 in
14:07 81.5 °F 60.5 °F 29.80 in NNE 2.3 mph   49 % 0.00 in
14:12 81.4 °F 61.0 °F 29.80 in NW 2.3 mph 2.3 mph 50 % 0.00 in
14:17 81.2 °F 61.4 °F 29.80 in WSW 2.3 mph 2.3 mph 51 % 0.00 in
14:22 82.0 °F 62.1 °F 29.80 in SSE 1.2 mph 1.2 mph 51 % 0.00 in
14:27 82.6 °F 62.1 °F 29.80 in WNW 2.3 mph 2.3 mph 50 % 0.00 in
14:32 82.4 °F 61.9 °F 29.79 in WNW 1.2 mph 1.2 mph 50 % 0.00 in
14:37 82.8 °F 62.8 °F 29.79 in SE 2.3 mph 2.3 mph 51 % 0.00 in
14:42 82.9 °F 62.4 °F 29.79 in WNW 3.5 mph 3.5 mph 50 % 0.00 in
14:47 82.1 °F 61.6 °F 29.79 in NW 3.5 mph 3.5 mph 50 % 0.00 in
14:52 82.1 °F 62.2 °F 29.78 in East 1.2 mph 1.2 mph 51 % 0.00 in
14:57 82.8 °F 63.4 °F 29.78 in ENE 2.0 mph 2.0 mph 52 % 0.00 in
15:02 83.3 °F 62.7 °F 29.78 in NNE 2.0 mph 2.0 mph 50 % 0.00 in
15:07 83.3 °F 62.1 °F 29.78 in SSW 3.5 mph 3.5 mph 49 % 0.00 in
15:12 83.2 °F 62.6 °F 29.78 in NW 2.3 mph 2.3 mph 50 % 0.00 in
15:17 83.7 °F 63.1 °F 29.78 in NNE 2.3 mph 2.3 mph 50 % 0.00 in
15:22 84.1 °F 62.3 °F 29.78 in North 5.8 mph 5.8 mph 48 % 0.00 in
15:27 83.5 °F 61.7 °F 29.78 in NW 3.5 mph 3.5 mph 48 % 0.00 in
15:32 82.8 °F 61.1 °F 29.77 in NW 2.3 mph 2.3 mph 48 % 0.00 in
15:37 82.6 °F 61.5 °F 29.77 in NW 2.3 mph 2.3 mph 49 % 0.00 in
15:42 83.0 °F 61.9 °F 29.77 in NNW 1.0 mph 1.0 mph 49 % 0.00 in
15:47 83.8 °F 62.6 °F 29.77 in NE 3.5 mph 3.5 mph 49 % 0.00 in
15:52 84.2 °F 62.4 °F 29.77 in WNW 2.0 mph 2.0 mph 48 % 0.00 in
15:58 84.3 °F 61.9 °F 29.77 in NNE 1.0 mph 1.0 mph 47 % 0.00 in
16:03 84.2 °F 62.4 °F 29.76 in West 2.3 mph 2.3 mph 48 % 0.00 in
16:08 83.8 °F 61.4 °F 29.76 in West 2.3 mph 2.3 mph 47 % 0.00 in
16:13 83.6 °F 61.8 °F 29.76 in Calm     48 % 0.00 in
16:18 83.3 °F 62.1 °F 29.76 in Calm     49 % 0.00 in
16:23 83.3 °F 62.7 °F 29.76 in WNW 2.3 mph 2.3 mph 50 % 0.00 in
16:28 83.2 °F 62.6 °F 29.76 in NW 2.3 mph 2.3 mph 50 % 0.00 in
16:33 83.3 °F 62.1 °F 29.76 in NW 1.2 mph 1.2 mph 49 % 0.00 in
16:38 83.3 °F 62.1 °F 29.76 in NNW 1.2 mph 1.2 mph 49 % 0.00 in
16:43 83.6 °F 63.0 °F 29.76 in NNW 2.3 mph 2.3 mph 50 % 0.00 in
16:48 84.1 °F 62.3 °F 29.76 in NNW 1.2 mph   48 % 0.00 in
16:53 84.4 °F 61.4 °F 29.76 in Calm     46 % 0.00 in
16:58 84.6 °F 61.5 °F 29.76 in Calm     46 % 0.00 in
17:03 84.7 °F 61.6 °F 29.76 in NNW 1.2 mph 1.2 mph 46 % 0.00 in
17:08 84.3 °F 61.3 °F 29.76 in Calm     46 % 0.00 in
17:09 84.3 °F 60.6 °F 29.75 in Calm   0.2 mph 45 % 0.00 in
17:14 84.3 °F 61.9 °F 29.76 in WNW 2.3 mph 2.3 mph 47 % 0.00 in
17:19 84.0 °F 61.0 °F 29.75 in West 1.2 mph   46 % 0.00 in
17:24 84.3 °F 61.9 °F 29.75 in Calm     47 % 0.00 in
17:29 84.4 °F 61.4 °F 29.75 in NNW 1.2 mph   46 % 0.00 in
17:34 84.3 °F 60.6 °F 29.75 in Calm   0.1 mph 45 % 0.00 in
17:39 83.8 °F 60.8 °F 29.75 in ESE 1.2 mph   46 % 0.00 in
17:44 83.6 °F 61.8 °F 29.75 in Calm     48 % 0.00 in
17:49 83.7 °F 62.5 °F 29.75 in South 1.2 mph   49 % 0.00 in
17:55 83.1 °F 62.0 °F 29.75 in Calm     49 % 0.00 in
18:00 82.6 °F 62.1 °F 29.75 in ENE 1.2 mph   50 % 0.00 in
18:05 82.2 °F 62.3 °F 29.76 in NE 1.2 mph   51 % 0.00 in
18:10 81.9 °F 62.0 °F 29.76 in NNW 1.2 mph   51 % 0.00 in
18:15 81.5 °F 62.7 °F 29.76 in Calm     53 % 0.00 in
18:20 81.2 °F 62.4 °F 29.76 in Calm     53 % 0.00 in
18:25 80.8 °F 63.1 °F 29.76 in Calm     55 % 0.00 in
18:30 80.3 °F 61.6 °F 29.76 in West 2.3 mph 2.3 mph 53 % 0.00 in
18:35 79.9 °F 61.2 °F 29.76 in Calm     53 % 0.00 in
18:40 79.7 °F 61.6 °F 29.76 in West 1.2 mph 1.2 mph 54 % 0.00 in
18:45 79.3 °F 61.2 °F 29.76 in Calm     54 % 0.00 in
18:47 79.1 °F 61.0 °F 29.76 in West 1.2 mph 1.2 mph 54 % 0.00 in
18:57 78.2 °F 60.7 °F 29.76 in Calm     55 % 0.00 in
19:02 77.8 °F 61.3 °F 29.76 in Calm     57 % 0.00 in
19:07 77.4 °F 61.5 °F 29.76 in Calm     58 % 0.00 in
19:12 76.9 °F 60.5 °F 29.76 in Calm     57 % 0.00 in
19:17 76.5 °F 60.6 °F 29.76 in Calm     58 % 0.00 in
19:22 76.2 °F 60.3 °F 29.76 in Calm     58 % 0.00 in
19:27 75.9 °F 60.1 °F 29.76 in West 1.2 mph 1.2 mph 58 % 0.00 in
19:32 75.8 °F 60.0 °F 29.77 in Calm     58 % 0.00 in
19:37 75.6 °F 59.8 °F 29.77 in Calm     58 % 0.00 in
19:42 75.4 °F 60.1 °F 29.77 in Calm     59 % 0.00 in
19:47 75.1 °F 59.8 °F 29.77 in Calm     59 % 0.00 in
19:52 74.9 °F 59.6 °F 29.77 in Calm     59 % 0.00 in
19:57 74.8 °F 60.0 °F 29.77 in Calm     60 % 0.00 in
20:02 74.6 °F 60.3 °F 29.77 in Calm     61 % 0.00 in
20:07 74.2 °F 60.3 °F 29.78 in Calm     62 % 0.00 in
20:13 73.9 °F 60.5 °F 29.78 in Calm     63 % 0.00 in
20:18 73.5 °F 60.6 °F 29.78 in Calm     64 % 0.00 in
20:23 73.1 °F 60.6 °F 29.78 in Calm     65 % 0.00 in
20:26 72.9 °F 60.9 °F 29.78 in Calm     66 % 0.00 in
20:27 72.8 °F 60.8 °F 29.78 in Calm     66 % 0.00 in
20:28 72.8 °F 60.8 °F 29.78 in Calm     66 % 0.00 in
20:38 72.3 °F 60.7 °F 29.78 in Calm     67 % 0.00 in
20:40 72.4 °F 60.8 °F 29.79 in Calm     67 % 0.00 in
20:45 72.2 °F 60.6 °F 29.79 in Calm     67 % 0.00 in
20:50 72.0 °F 60.9 °F 29.79 in Calm     68 % 0.00 in
20:55 71.9 °F 60.8 °F 29.79 in Calm     68 % 0.00 in
21:00 71.8 °F 60.7 °F 29.79 in Calm     68 % 0.00 in
21:05 71.7 °F 61.0 °F 29.79 in Calm     69 % 0.00 in
21:10 71.5 °F 60.4 °F 29.79 in Calm     68 % 0.00 in
21:15 71.5 °F 60.4 °F 29.79 in Calm     68 % 0.00 in
21:20 71.4 °F 60.7 °F 29.80 in Calm     69 % 0.00 in
21:25 71.3 °F 61.0 °F 29.80 in Calm     70 % 0.00 in
21:30 71.2 °F 60.9 °F 29.80 in Calm     70 % 0.00 in
21:35 71.2 °F 60.9 °F 29.80 in Calm     70 % 0.00 in
21:40 71.3 °F 60.6 °F 29.80 in Calm     69 % 0.00 in
21:45 71.4 °F 60.7 °F 29.80 in Calm     69 % 0.00 in
21:50 71.4 °F 61.9 °F 29.80 in Calm     72 % 0.00 in
21:55 71.6 °F 61.7 °F 29.80 in Calm     71 % 0.00 in
22:00 71.6 °F 61.7 °F 29.81 in Calm     71 % 0.00 in
22:05 71.6 °F 62.1 °F 29.81 in Calm     72 % 0.00 in
22:10 71.7 °F 62.2 °F 29.81 in Calm     72 % 0.00 in
22:15 71.7 °F 62.2 °F 29.81 in Calm     72 % 0.00 in
22:20 71.7 °F 62.6 °F 29.81 in Calm     73 % 0.00 in
22:25 71.6 °F 62.1 °F 29.81 in Calm     72 % 0.00 in
22:30 71.6 °F 62.5 °F 29.81 in Calm     73 % 0.00 in
22:35 71.5 °F 62.8 °F 29.81 in Calm     74 % 0.00 in
22:40 71.5 °F 62.0 °F 29.81 in Calm     72 % 0.00 in
22:45 71.7 °F 62.6 °F 29.81 in Calm     73 % 0.00 in
22:50 71.7 °F 62.2 °F 29.81 in Calm     72 % 0.00 in
22:55 71.6 °F 62.1 °F 29.81 in Calm     72 % 0.00 in
23:00 71.4 °F 61.9 °F 29.81 in Calm     72 % 0.00 in
23:05 71.2 °F 61.7 °F 29.81 in West 1.2 mph 1.2 mph 72 % 0.00 in
23:10 71.3 °F 61.8 °F 29.81 in WNW 2.3 mph 2.3 mph 72 % 0.00 in
23:15 71.3 °F 61.4 °F 29.81 in WNW 1.0 mph 1.0 mph 71 % 0.00 in
23:20 71.2 °F 60.1 °F 29.82 in NW 3.5 mph 3.5 mph 68 % 0.00 in
23:25 71.2 °F 59.3 °F 29.82 in NNE 2.3 mph 2.3 mph 66 % 0.00 in
23:30 71.2 °F 58.4 °F 29.82 in NW 2.0 mph 2.0 mph 64 % 0.00 in
23:35 71.1 °F 57.9 °F 29.82 in NW 2.3 mph 2.3 mph 63 % 0.00 in
23:40 70.9 °F 57.7 °F 29.82 in NW 2.3 mph 2.3 mph 63 % 0.00 in
23:45 70.7 °F 57.5 °F 29.81 in NW 1.2 mph 1.2 mph 63 % 0.00 in
23:51 70.5 °F 57.3 °F 29.82 in WNW 3.5 mph 3.5 mph 63 % 0.00 in
23:56 70.4 °F 57.6 °F 29.82 in WNW 2.3 mph 2.3 mph 64 % 0.00 in
Park Place, Exeter, Tulare County, California, USA
Compliments of Weather Underground - 2.75 mb